User: anonymous   Login
Location: *
(34.6780°N, 135.8310°E)
Time: 10:26:10
(UTC+00:00)
Language:

Cosmos 2366 rocket - Orbit

View from above orbital plane
View from above orbital plane
View from above satellite
View from above satellite

Ground track
Ground track

The orbit data is extracted from the following two-line orbital elements,

1 25893U 99045B   19339.77829041 +.00000008 +00000-0 -79726-5 0  9992
2 25893 082.9282 073.3778 0029987 093.6503 016.9373 13.76521456018699
Epoch (UTC): 05 December 2019 18:40:44
Eccentricity: 0.0029987
inclination: 82.9282°
perigee height: 954 km
apogee height: 998 km
right ascension of ascending node: 73.3778°
argument of perigee: 93.6503°
revolutions per day: 13.76521456
mean anomaly at epoch: 16.9373°
orbit number at epoch: 1869

The dashed part of the orbit path shows where the satellite is in the earth's shadow,  

DLR